When you browse on this site, cookies collect data to enhance your experience and personalize the content and advertising you see.
Visit our Privacy Policy to learn more. By continuing to use the site, you agree to this use of cookies and data.
  • In Schweiz
  • Länderverzeichnis
  • Für 7 Tage
  • Wassertemperatur
  • Satellitenkarten
  • Wetterkarte
  • Widgets
  • user-avatar
    Anmelden

    Stündliche Wetter Canillo

    Heute, 21 März, Donnerstag

    Zeit Temperatur Niederschläge Wind Luftdruck Luftfeuchtigkeit
    00:00 -4°C° 0 mm 1 m/S 620 mmHg 75%
    01:00 -4°C° 0 mm 1 m/S 620 mmHg 76%
    02:00 -4°C° 0 mm 1 m/S 620 mmHg 76%
    03:00 -4°C° 0 mm 1 m/S 620 mmHg 77%
    04:00 -4°C° 0 mm 1 m/S 620 mmHg 76%
    05:00 -4°C° 0 mm 1 m/S 620 mmHg 76%
    06:00 -4°C° 0 mm 1 m/S 620 mmHg 75%
    07:00 -1°C° 0 mm 1 m/S 621 mmHg 63%
    08:00 +2°C° 0 mm 1 m/S 622 mmHg 52%
    09:00 +4°C° 0 mm 1 m/S 624 mmHg 41%
    10:00 +6°C° 0 mm 1 m/S 624 mmHg 38%
    11:00 +7°C° 0 mm 1 m/S 625 mmHg 35%
    12:00 +8°C° 0 mm 1 m/S 625 mmHg 33%
    13:00 +8°C° 0 mm 1 m/S 625 mmHg 34%
    14:00 +8°C° 0 mm 1 m/S 624 mmHg 36%
    15:00 +8°C° 0 mm 1 m/S 624 mmHg 37%
    16:00 +6°C° 0 mm 1 m/S 623 mmHg 44%
    17:00 +4°C° 0 mm 1 m/S 622 mmHg 51%
    18:00 0°C° 0 mm 0 m/S 621 mmHg 58%
    19:00 +1°C° 0 mm 1 m/S 621 mmHg 58%
    20:00 0°C° 0 mm 1 m/S 621 mmHg 58%
    21:00 0°C° 0 mm 1 m/S 621 mmHg 58%
    22:00 0°C° 0 mm 1 m/S 621 mmHg 55%
    23:00 0°C° 0 mm 1 m/S 622 mmHg 52%

    Morgen, 22 März, Freitag

    Zeit Temperatur Niederschläge Wind Luftdruck Luftfeuchtigkeit
    00:00 0°C° 0 mm 1 m/S 622 mmHg 49%
    01:00 0°C° 0 mm 1 m/S 621 mmHg 49%
    02:00 0°C° 0 mm 1 m/S 621 mmHg 49%
    03:00 0°C° 0 mm 1 m/S 621 mmHg 49%
    04:00 0°C° 0 mm 1 m/S 621 mmHg 50%
    05:00 0°C° 0 mm 1 m/S 621 mmHg 52%
    06:00 0°C° 0 mm 1 m/S 621 mmHg 54%
    07:00 +3°C° 0 mm 1 m/S 623 mmHg 50%
    08:00 +6°C° 0 mm 1 m/S 624 mmHg 47%
    09:00 +8°C° 0 mm 0 m/S 625 mmHg 43%
    10:00 +10°C° 0 mm 1 m/S 626 mmHg 41%
    11:00 +11°C° 0 mm 1 m/S 626 mmHg 40%
    12:00 +12°C° 0 mm 1 m/S 626 mmHg 39%
    13:00 +11°C° 0 mm 1 m/S 626 mmHg 41%
    14:00 +11°C° 0 mm 1 m/S 625 mmHg 43%
    15:00 +10°C° 0 mm 1 m/S 625 mmHg 45%
    16:00 +9°C° 0.1 mm 1 m/S 624 mmHg 51%
    17:00 +7°C° 0.1 mm 1 m/S 623 mmHg 58%
    18:00 +4°C° 0.1 mm 0 m/S 622 mmHg 65%
    19:00 +4°C° 0 mm 1 m/S 622 mmHg 67%
    20:00 +4°C° 0 mm 1 m/S 622 mmHg 70%
    21:00 +3°C° 0 mm 1 m/S 622 mmHg 73%
    22:00 +2°C° 0 mm 1 m/S 622 mmHg 72%
    23:00 +2°C° 0 mm 1 m/S 622 mmHg 72%

    übermorgen, 23 März, Samstag

    Zeit Temperatur Niederschläge Wind Luftdruck Luftfeuchtigkeit
    00:00 +2°C° 0 mm 1 m/S 622 mmHg 71%
    01:00 +2°C° 0 mm 1 m/S 622 mmHg 71%
    02:00 +2°C° 0 mm 1 m/S 621 mmHg 71%
    03:00 +2°C° 0 mm 1 m/S 621 mmHg 71%
    04:00 +2°C° 0 mm 1 m/S 621 mmHg 71%
    05:00 +2°C° 0 mm 1 m/S 621 mmHg 71%
    06:00 +1°C° 0 mm 1 m/S 621 mmHg 71%
    07:00 +4°C° 0 mm 1 m/S 622 mmHg 63%
    08:00 +7°C° 0 mm 1 m/S 623 mmHg 54%
    09:00 +10°C° 0 mm 1 m/S 624 mmHg 45%
    10:00 +11°C° 0 mm 1 m/S 625 mmHg 42%
    11:00 +12°C° 0 mm 1 m/S 625 mmHg 39%
    12:00 +13°C° 0 mm 1 m/S 625 mmHg 36%
    13:00 +13°C° 0 mm 1 m/S 624 mmHg 38%
    14:00 +12°C° 0 mm 1 m/S 624 mmHg 40%
    15:00 +12°C° 0 mm 1 m/S 623 mmHg 42%
    16:00 +10°C° 0 mm 1 m/S 622 mmHg 50%
    17:00 +8°C° 0 mm 1 m/S 622 mmHg 58%
    18:00 +6°C° 0 mm 1 m/S 621 mmHg 67%
    19:00 +5°C° 0 mm 1 m/S 621 mmHg 70%
    20:00 +4°C° 0 mm 1 m/S 621 mmHg 74%
    21:00 +3°C° 0 mm 1 m/S 621 mmHg 77%
    22:00 +3°C° 0 mm 1 m/S 620 mmHg 77%
    23:00 +3°C° 0 mm 1 m/S 620 mmHg 76%

    24 März, Sonntag

    Zeit Temperatur Niederschläge Wind Luftdruck Luftfeuchtigkeit
    00:00 +3°C° 0 mm 1 m/S 620 mmHg 76%
    01:00 +3°C° 0 mm 1 m/S 620 mmHg 75%
    02:00 +3°C° 0 mm 1 m/S 620 mmHg 75%
    03:00 +3°C° 0 mm 1 m/S 620 mmHg 75%
    04:00 +3°C° 0 mm 1 m/S 620 mmHg 75%
    05:00 +2°C° 0 mm 1 m/S 620 mmHg 76%
    06:00 +2°C° 0 mm 1 m/S 620 mmHg 77%
    07:00 +5°C° 0 mm 1 m/S 621 mmHg 67%
    08:00 +7°C° 0 mm 0 m/S 622 mmHg 58%
    09:00 +9°C° 0 mm 0 m/S 624 mmHg 48%
    10:00 +11°C° 0 mm 1 m/S 624 mmHg 46%
    11:00 +12°C° 0 mm 1 m/S 624 mmHg 44%
    12:00 +13°C° 0 mm 1 m/S 624 mmHg 41%
    13:00 +12°C° 0.2 mm 1 m/S 623 mmHg 45%
    14:00 +11°C° 0.2 mm 1 m/S 623 mmHg 49%
    15:00 +10°C° 0.2 mm 1 m/S 622 mmHg 53%
    16:00 +9°C° 0.2 mm 1 m/S 621 mmHg 59%
    17:00 +8°C° 0.2 mm 1 m/S 621 mmHg 65%
    18:00 +7°C° 0.2 mm 1 m/S 620 mmHg 71%
    19:00 +6°C° 0.1 mm 1 m/S 620 mmHg 76%
    20:00 +5°C° 0.1 mm 1 m/S 620 mmHg 81%
    21:00 +4°C° 0.1 mm 1 m/S 620 mmHg 86%
    22:00 +4°C° 0 mm 1 m/S 620 mmHg 88%
    23:00 +3°C° 0 mm 1 m/S 620 mmHg 90%

    25 März, Montag

    Zeit Temperatur Niederschläge Wind Luftdruck Luftfeuchtigkeit
    00:00 +3°C° 0 mm 1 m/S 620 mmHg 91%
    01:00 +3°C° 0 mm 1 m/S 619 mmHg 92%
    02:00 +3°C° 0 mm 1 m/S 619 mmHg 93%
    03:00 +3°C° 0 mm 1 m/S 619 mmHg 94%
    04:00 +2°C° 0 mm 1 m/S 619 mmHg 93%
    05:00 +2°C° 0 mm 1 m/S 619 mmHg 93%
    06:00 +2°C° 0 mm 1 m/S 619 mmHg 93%
    07:00 +4°C° 0 mm 1 m/S 620 mmHg 81%
    08:00 +6°C° 0 mm 1 m/S 621 mmHg 69%
    09:00 +9°C° 0 mm 1 m/S 622 mmHg 57%
    10:00 +10°C° 0 mm 1 m/S 622 mmHg 54%
    11:00 +11°C° 0 mm 1 m/S 622 mmHg 52%
    12:00 +12°C° 0 mm 1 m/S 623 mmHg 50%
    13:00 +11°C° 0.1 mm 1 m/S 622 mmHg 54%
    14:00 +10°C° 0.1 mm 1 m/S 621 mmHg 59%
    15:00 +9°C° 0.1 mm 1 m/S 620 mmHg 63%
    16:00 +8°C° 0.1 mm 1 m/S 620 mmHg 70%
    17:00 +6°C° 0.1 mm 2 m/S 619 mmHg 78%
    18:00 +5°C° 0.1 mm 2 m/S 619 mmHg 85%
    19:00 +4°C° 0 mm 2 m/S 619 mmHg 88%
    20:00 +5°C° 0 mm 1 m/S 619 mmHg 91%
    21:00 +4°C° 0 mm 1 m/S 620 mmHg 94%
    22:00 +3°C° 0 mm 1 m/S 619 mmHg 94%
    23:00 +2°C° 0 mm 1 m/S 619 mmHg 94%

    26 März, Dienstag

    Zeit Temperatur Niederschläge Wind Luftdruck Luftfeuchtigkeit
    00:00 +2°C° 0 mm 1 m/S 619 mmHg 94%
    01:00 +1°C° 0 mm 1 m/S 618 mmHg 92%
    02:00 -1°C° 0 mm 2 m/S 618 mmHg 89%
    03:00 -1°C° 0 mm 2 m/S 618 mmHg 87%
    04:00 -2°C° 0 mm 2 m/S 618 mmHg 83%
    05:00 -2°C° 0 mm 2 m/S 618 mmHg 79%
    06:00 -2°C° 0 mm 2 m/S 618 mmHg 76%
    07:00 +2°C° 0 mm 2 m/S 619 mmHg 66%
    08:00 +4°C° 0 mm 2 m/S 620 mmHg 56%
    09:00 +7°C° 0 mm 2 m/S 621 mmHg 46%
    10:00 +8°C° 0 mm 2 m/S 621 mmHg 43%
    11:00 +10°C° 0 mm 2 m/S 622 mmHg 39%
    12:00 +12°C° 0 mm 2 m/S 622 mmHg 36%
    13:00 +12°C° 0 mm 2 m/S 622 mmHg 38%
    14:00 +12°C° 0 mm 2 m/S 621 mmHg 41%
    15:00 +10°C° 0 mm 2 m/S 621 mmHg 44%
    16:00 +8°C° 0 mm 2 m/S 620 mmHg 53%
    17:00 +6°C° 0 mm 2 m/S 619 mmHg 63%
    18:00 +4°C° 0 mm 2 m/S 619 mmHg 73%
    19:00 +3°C° 0 mm 2 m/S 619 mmHg 75%
    20:00 +3°C° 0 mm 1 m/S 619 mmHg 77%
    21:00 +2°C° 0 mm 1 m/S 619 mmHg 80%
    22:00 +2°C° 0 mm 1 m/S 619 mmHg 71%
    23:00 +2°C° 0 mm 1 m/S 619 mmHg 63%
    Mehr zeigen